Regional Weather Roundup
Issued by NWS

Home | Current Version | Previous Version | Graphics & Text | Print | Product List | Glossary On
Versions: 1 2 3 4 5 6 7 8 9 10 11 12 13 14 15 16 17 18 19 20 21 22 23 24 25 26 27 28 29 30 31 32 33 34 35 36 37 38 39 40 41 42 43 44 45 46 47 48 49 50
000
ASUS43 KBIS 180320
RWRND

NORTH DAKOTA REGIONAL WEATHER ROUNDUP
NATIONAL WEATHER SERVICE BISMARCK ND
1000 PM CDT THU APR 17 2014

NOTE: "FAIR" INDICATES FEW OR NO CLOUDS BELOW 12,000 FEET WITH NO
SIGNIFICANT WEATHER AND/OR OBSTRUCTIONS TO VISIBILITY.


NDZ001>003-009>011-017-180400-
NORTHWEST NORTH DAKOTA

CITY           SKY/WX    TMP DP  RH WIND       PRES   REMARKS
WILLISTON      CLOUDY    40  27  59 E10       30.01F
MINOT          CLOUDY    36  21  54 E10       30.13S
MINOT AFB      MOCLDY    35  22  60 E14       30.13R
$$

NDZ018>021-031>035-040>046-180400-
SOUTHWEST NORTH DAKOTA

CITY           SKY/WX    TMP DP  RH WIND       PRES   REMARKS
BISMARCK       PTCLDY    35  23  61 SE8       30.14S
DICKINSON      CLOUDY    39  26  59 SE14      30.00S
GARRISON         N/A     38  24  57 SE10      30.11S
HETTINGER ARPT PTCLDY    38  27  64 SE13      30.02S
$$

NDZ004>008-012>016-024-026-027-054-180400-
NORTHEAST NORTH DAKOTA

CITY           SKY/WX    TMP DP  RH WIND       PRES   REMARKS
GRAND FORKS    MOCLDY    33  16  49 NE7       30.30S
GRND FRKS AFB  CLOUDY    33  11  39 E6        30.30R
DEVILS LAKE    CLOUDY    34  16  47 E15       30.24R
$$

NDZ022-023-025-028>030-036>039-047>053-180400-
SOUTHEAST NORTH DAKOTA

CITY           SKY/WX    TMP DP  RH WIND       PRES   REMARKS
FARGO          PTCLDY    34  18  52 NE7       30.29R
JAMESTOWN      CLOUDY    34  21  59 E9        30.21R
$$




USA.gov is the U.S. government's official web portal to all federal, state and local government web resources and services.